LOT496 ESGG-EPWA

Flight info

Callsign LOT496
Flight time 1h 17m
Altitude 37000
Route LUKAX DCT LARMA DCT NASOK DCT SORIX
Aircraft B738/M-SDE2E3FGHIJ1RWYZ/LB1

Departure

Time 2026-05-07 16:31
Airport Göteborg Landvetter Airport (ESGG)

Arrival

Time 2026-05-07 17:48
Airport Warsaw Chopin Airport (EPWA)
Time Latitude Longitude Altitude Speed Heading
2026-05-07 16:00 57.67007 12.29535 517 ft 0 kts 116°
2026-05-07 16:21 57.67015 12.29505 537 ft 4 kts 120°
2026-05-07 16:22 57.67030 12.29463 550 ft 4 kts 131°
2026-05-07 16:22 57.67049 12.29432 547 ft 4 kts 164°
2026-05-07 16:22 57.67065 12.29432 546 ft 1 kts 206°
2026-05-07 16:28 57.67064 12.29431 546 ft 1 kts 205°
2026-05-07 16:28 57.67036 12.29407 551 ft 8 kts 204°
2026-05-07 16:28 57.66986 12.29310 553 ft 16 kts 277°
2026-05-07 16:29 57.67082 12.29218 553 ft 21 kts 26°
2026-05-07 16:29 57.67226 12.29348 553 ft 23 kts 26°
2026-05-07 16:29 57.67369 12.29473 553 ft 22 kts 12°
2026-05-07 16:29 57.67458 12.29298 555 ft 17 kts 283°
2026-05-07 16:30 57.67459 12.29271 554 ft 0 kts 273°
2026-05-07 16:30 57.67460 12.29264 553 ft 2 kts 274°
2026-05-07 16:30 57.67461 12.29184 551 ft 10 kts 272°
2026-05-07 16:30 57.67427 12.29035 554 ft 15 kts 227°
2026-05-07 16:31 57.67277 12.28880 558 ft 52 kts 206°
2026-05-07 16:31 57.66740 12.28390 555 ft 121 kts 206°
2026-05-07 16:31 57.65830 12.27513 671 ft 166 kts 212°
2026-05-07 16:31 57.64780 12.26489 1394 ft 178 kts 210°
2026-05-07 16:32 57.63649 12.25370 2163 ft 188 kts 209°
2026-05-07 16:32 57.62336 12.24938 2761 ft 208 kts 169°
2026-05-07 16:32 57.60978 12.25955 3330 ft 214 kts 156°
2026-05-07 16:32 57.59602 12.27077 3921 ft 217 kts 157°
2026-05-07 16:33 57.58219 12.28204 4554 ft 219 kts 149°
2026-05-07 16:33 57.57186 12.30201 5196 ft 219 kts 117°
2026-05-07 16:33 57.56848 12.33025 5601 ft 239 kts 85°
2026-05-07 16:33 57.57309 12.36168 5951 ft 263 kts 70°
2026-05-07 16:34 57.58010 12.39364 6667 ft 270 kts 68°
2026-05-07 16:34 57.58740 12.42626 7405 ft 275 kts 68°
2026-05-07 16:34 57.59480 12.45949 8160 ft 280 kts 68°
2026-05-07 16:34 57.60213 12.49338 8911 ft 284 kts 69°
2026-05-07 16:35 57.60905 12.52822 9664 ft 290 kts 79°
2026-05-07 16:35 57.60807 12.56541 10345 ft 293 kts 111°
2026-05-07 16:35 57.59709 12.59822 10606 ft 311 kts 135°
2026-05-07 16:35 57.58151 12.62755 10784 ft 334 kts 137°
2026-05-07 16:36 57.56446 12.65821 11215 ft 346 kts 137°
2026-05-07 16:36 57.54693 12.68946 11837 ft 352 kts 137°
2026-05-07 16:36 57.52914 12.72123 12536 ft 357 kts 137°
2026-05-07 16:36 57.51116 12.75351 13250 ft 362 kts 137°
2026-05-07 16:37 57.49293 12.78638 13943 ft 368 kts 137°
2026-05-07 16:37 57.47448 12.81973 14622 ft 372 kts 137°
2026-05-07 16:37 57.45588 12.85338 15333 ft 375 kts 137°
2026-05-07 16:37 57.43733 12.88696 16019 ft 380 kts 137°
2026-05-07 16:38 57.41835 12.92132 16717 ft 384 kts 138°
2026-05-07 16:38 57.39909 12.95615 17400 ft 388 kts 138°
2026-05-07 16:38 57.37966 12.99124 18077 ft 393 kts 138°
2026-05-07 16:38 57.35997 13.02676 18678 ft 397 kts 138°
2026-05-07 16:39 57.34006 13.06262 19285 ft 400 kts 139°
2026-05-07 16:39 57.32002 13.09865 19891 ft 404 kts 139°
2026-05-07 16:39 57.29978 13.13499 20474 ft 407 kts 139°
2026-05-07 16:39 57.27935 13.17161 21054 ft 411 kts 139°
2026-05-07 16:40 57.25899 13.20804 21624 ft 414 kts 139°
2026-05-07 16:40 57.23819 13.24518 22167 ft 418 kts 139°
2026-05-07 16:40 57.21718 13.28265 22683 ft 422 kts 140°
2026-05-07 16:40 57.19594 13.32047 23211 ft 426 kts 140°
2026-05-07 16:41 57.17452 13.35853 23711 ft 430 kts 140°
2026-05-07 16:41 57.15292 13.39686 24174 ft 432 kts 140°
2026-05-07 16:41 57.13126 13.43524 24661 ft 433 kts 140°
2026-05-07 16:41 57.10948 13.47377 25134 ft 435 kts 140°
2026-05-07 16:42 57.08790 13.51189 25586 ft 437 kts 140°
2026-05-07 16:42 57.06595 13.55058 26021 ft 439 kts 140°
2026-05-07 16:42 57.04383 13.58949 26453 ft 441 kts 140°
2026-05-07 16:42 57.02164 13.62846 26875 ft 443 kts 140°
2026-05-07 16:43 56.99933 13.66758 27306 ft 445 kts 140°
2026-05-07 16:43 56.97685 13.70682 27716 ft 446 kts 140°
2026-05-07 16:43 56.95432 13.74603 28113 ft 448 kts 140°
2026-05-07 16:43 56.93164 13.78546 28494 ft 450 kts 140°
2026-05-07 16:44 56.90888 13.82500 28876 ft 452 kts 140°
2026-05-07 16:44 56.88602 13.86469 29246 ft 454 kts 140°
2026-05-07 16:44 56.86335 13.90399 29623 ft 456 kts 140°
2026-05-07 16:44 56.84028 13.94395 29963 ft 457 kts 140°
2026-05-07 16:45 56.81716 13.98393 30288 ft 459 kts 140°
2026-05-07 16:45 56.79400 14.02392 30658 ft 458 kts 140°
2026-05-07 16:45 56.77094 14.06368 31108 ft 455 kts 140°
2026-05-07 16:45 56.74799 14.10318 31554 ft 453 kts 140°
2026-05-07 16:46 56.72513 14.14245 31961 ft 451 kts 140°
2026-05-07 16:46 56.70233 14.18152 32355 ft 450 kts 140°
2026-05-07 16:46 56.67960 14.22041 32752 ft 448 kts 140°
2026-05-07 16:46 56.65722 14.25862 33174 ft 446 kts 140°
2026-05-07 16:47 56.63471 14.29701 33623 ft 443 kts 140°
2026-05-07 16:47 56.61228 14.33519 34030 ft 441 kts 140°
2026-05-07 16:47 56.58991 14.37318 34283 ft 441 kts 140°
2026-05-07 16:47 56.56742 14.41129 34462 ft 443 kts 140°
2026-05-07 16:48 56.54486 14.44947 34691 ft 444 kts 140°
2026-05-07 16:48 56.52227 14.48765 34928 ft 444 kts 140°
2026-05-07 16:48 56.49965 14.52581 35144 ft 445 kts 140°
2026-05-07 16:48 56.47727 14.56351 35342 ft 446 kts 140°
2026-05-07 16:49 56.45453 14.60175 35578 ft 446 kts 140°
2026-05-07 16:49 56.43178 14.63995 35801 ft 447 kts 141°
2026-05-07 16:49 56.40893 14.67824 35986 ft 448 kts 141°
2026-05-07 16:49 56.38605 14.71652 36205 ft 449 kts 141°
2026-05-07 16:50 56.36314 14.75479 36447 ft 449 kts 141°
2026-05-07 16:50 56.34022 14.79301 36656 ft 450 kts 141°
2026-05-07 16:50 56.31718 14.83135 36848 ft 451 kts 141°
2026-05-07 16:50 56.29443 14.86915 37046 ft 452 kts 141°
2026-05-07 16:51 56.27127 14.90756 37024 ft 454 kts 141°
2026-05-07 16:51 56.22493 14.98425 37064 ft 451 kts 141°
2026-05-07 16:52 56.17888 15.06021 37078 ft 448 kts 141°
2026-05-07 16:52 56.13301 15.13560 37070 ft 446 kts 141°
2026-05-07 16:53 56.08730 15.21046 37062 ft 444 kts 141°
2026-05-07 16:53 56.04195 15.28447 37043 ft 444 kts 141°
2026-05-07 16:54 55.99628 15.35876 37023 ft 444 kts 141°
2026-05-07 16:54 55.95043 15.43308 36999 ft 446 kts 142°
2026-05-07 16:55 55.90441 15.50744 36981 ft 448 kts 142°
2026-05-07 16:55 55.85843 15.58150 36977 ft 449 kts 142°
2026-05-07 16:56 55.81192 15.65615 36973 ft 451 kts 142°
2026-05-07 16:56 55.74182 15.76821 36970 ft 453 kts 142°
2026-05-07 16:57 55.69489 15.84292 36961 ft 453 kts 142°
2026-05-07 16:57 55.64820 15.91700 36955 ft 454 kts 142°
2026-05-07 16:58 55.60115 15.99139 36953 ft 453 kts 142°
2026-05-07 16:58 55.55411 16.06553 36952 ft 453 kts 142°
2026-05-07 16:59 55.50710 16.13938 36949 ft 452 kts 142°
2026-05-07 16:59 55.46038 16.21252 36941 ft 452 kts 143°
2026-05-07 17:00 55.41339 16.28584 36938 ft 451 kts 143°
2026-05-07 17:00 55.36637 16.35897 36935 ft 451 kts 143°
2026-05-07 17:01 55.31939 16.43183 36934 ft 450 kts 143°
2026-05-07 17:01 55.27261 16.50381 36923 ft 449 kts 145°
2026-05-07 17:02 55.22240 16.56806 36923 ft 446 kts 150°
2026-05-07 17:02 55.17107 16.62902 36915 ft 446 kts 150°
2026-05-07 17:03 55.11974 16.69021 37106 ft 447 kts 150°
2026-05-07 17:03 55.06851 16.75187 37107 ft 447 kts 150°
2026-05-07 17:04 55.01766 16.81324 37105 ft 448 kts 150°
2026-05-07 17:04 54.96632 16.87507 37099 ft 449 kts 150°
2026-05-07 17:05 54.91492 16.93676 37101 ft 449 kts 150°
2026-05-07 17:05 54.86379 16.99792 37103 ft 449 kts 150°
2026-05-07 17:06 54.81225 17.05937 37096 ft 450 kts 150°
2026-05-07 17:06 54.76067 17.12068 37101 ft 450 kts 151°
2026-05-07 17:07 54.70903 17.18186 37098 ft 450 kts 151°
2026-05-07 17:07 54.65771 17.24248 37092 ft 450 kts 151°
2026-05-07 17:08 54.60604 17.30332 37096 ft 449 kts 151°
2026-05-07 17:08 54.55440 17.36393 37089 ft 449 kts 151°
2026-05-07 17:09 54.50276 17.42435 37081 ft 448 kts 151°
2026-05-07 17:09 54.45113 17.48457 37083 ft 448 kts 151°
2026-05-07 17:10 54.39995 17.54408 37078 ft 447 kts 151°
2026-05-07 17:10 54.34843 17.60381 37073 ft 447 kts 151°
2026-05-07 17:11 54.29693 17.66333 37077 ft 446 kts 152°
2026-05-07 17:11 54.24547 17.72262 37071 ft 446 kts 152°
2026-05-07 17:12 54.19436 17.78132 37073 ft 445 kts 152°
2026-05-07 17:12 54.14291 17.84024 37071 ft 445 kts 152°
2026-05-07 17:13 54.09146 17.89898 37066 ft 445 kts 152°
2026-05-07 17:13 54.04039 17.95711 37067 ft 444 kts 152°
2026-05-07 17:14 53.98899 18.01543 37065 ft 444 kts 152°
2026-05-07 17:14 53.93756 18.07363 37060 ft 444 kts 152°
2026-05-07 17:15 53.88621 18.13155 37056 ft 443 kts 152°
2026-05-07 17:15 53.83517 18.18895 37054 ft 443 kts 152°
2026-05-07 17:16 53.78386 18.24649 37050 ft 442 kts 152°
2026-05-07 17:16 53.73259 18.30381 37045 ft 441 kts 152°
2026-05-07 17:17 53.68140 18.36087 37054 ft 441 kts 152°
2026-05-07 17:17 53.63024 18.41771 37048 ft 440 kts 152°
2026-05-07 17:18 53.57948 18.47396 37047 ft 440 kts 152°
2026-05-07 17:18 53.52836 18.53044 37043 ft 439 kts 152°
2026-05-07 17:19 53.47725 18.58675 37042 ft 439 kts 152°
2026-05-07 17:19 53.42600 18.64302 36688 ft 445 kts 152°
2026-05-07 17:20 53.40882 18.66183 36396 ft 445 kts 152°
2026-05-07 17:20 53.37464 18.69928 35611 ft 443 kts 153°
2026-05-07 17:20 53.34894 18.72739 35152 ft 439 kts 153°
2026-05-07 17:20 53.33179 18.74614 34852 ft 436 kts 153°
2026-05-07 17:21 53.30678 18.77344 34430 ft 432 kts 153°
2026-05-07 17:21 53.28168 18.80079 33993 ft 429 kts 154°
2026-05-07 17:21 53.25680 18.82783 33497 ft 425 kts 154°
2026-05-07 17:21 53.23216 18.85458 33064 ft 420 kts 154°
2026-05-07 17:22 53.20781 18.88098 32625 ft 415 kts 154°
2026-05-07 17:22 53.18371 18.90707 32224 ft 410 kts 154°
2026-05-07 17:22 53.15221 18.94112 31662 ft 405 kts 154°
2026-05-07 17:22 53.12865 18.96654 31247 ft 401 kts 154°
2026-05-07 17:23 53.11291 18.98354 30977 ft 399 kts 153°
2026-05-07 17:23 53.09085 19.01190 30570 ft 403 kts 144°
2026-05-07 17:23 53.07189 19.04545 30283 ft 404 kts 136°
2026-05-07 17:23 53.05439 19.08166 29841 ft 402 kts 136°
2026-05-07 17:24 53.03715 19.11810 29432 ft 398 kts 135°
2026-05-07 17:24 53.02077 19.15504 29035 ft 396 kts 131°
2026-05-07 17:24 53.00573 19.19300 28775 ft 391 kts 130°
2026-05-07 17:24 52.99125 19.23115 28501 ft 392 kts 129°
2026-05-07 17:25 52.97668 19.26971 28218 ft 396 kts 129°
2026-05-07 17:25 52.96209 19.30821 27846 ft 391 kts 129°
2026-05-07 17:25 52.94763 19.34610 27447 ft 388 kts 129°
2026-05-07 17:25 52.93339 19.38312 27041 ft 385 kts 130°
2026-05-07 17:26 52.91899 19.42030 26654 ft 382 kts 130°
2026-05-07 17:26 52.90464 19.45714 26271 ft 379 kts 130°
2026-05-07 17:26 52.89033 19.49378 25877 ft 378 kts 130°
2026-05-07 17:26 52.87604 19.53025 25450 ft 377 kts 130°
2026-05-07 17:27 52.86178 19.56659 25036 ft 376 kts 130°
2026-05-07 17:27 52.84756 19.60277 24624 ft 374 kts 129°
2026-05-07 17:27 52.83338 19.63881 24221 ft 373 kts 129°
2026-05-07 17:27 52.81926 19.67466 23826 ft 371 kts 129°
2026-05-07 17:28 52.80519 19.71034 23401 ft 370 kts 129°
2026-05-07 17:28 52.79113 19.74592 22932 ft 369 kts 129°
2026-05-07 17:28 52.77732 19.78082 22478 ft 367 kts 129°
2026-05-07 17:28 52.76335 19.81612 22026 ft 366 kts 129°
2026-05-07 17:29 52.74944 19.85117 21582 ft 365 kts 129°
2026-05-07 17:29 52.73555 19.88613 21142 ft 363 kts 129°
2026-05-07 17:29 52.72172 19.92092 20707 ft 362 kts 129°
2026-05-07 17:29 52.70791 19.95560 20281 ft 361 kts 129°
2026-05-07 17:30 52.69417 19.99005 19859 ft 360 kts 129°
2026-05-07 17:30 52.68043 20.02445 19442 ft 358 kts 129°
2026-05-07 17:30 52.66675 20.05867 19041 ft 357 kts 129°
2026-05-07 17:30 52.65329 20.09227 18628 ft 356 kts 129°
2026-05-07 17:31 52.63968 20.12623 18222 ft 355 kts 129°
2026-05-07 17:31 52.62612 20.15999 17773 ft 353 kts 129°
2026-05-07 17:31 52.61257 20.19369 17321 ft 352 kts 129°
2026-05-07 17:31 52.59908 20.22721 16873 ft 351 kts 129°
2026-05-07 17:32 52.58562 20.26059 16432 ft 350 kts 129°
2026-05-07 17:32 52.57219 20.29386 15998 ft 348 kts 129°
2026-05-07 17:32 52.55881 20.32698 15575 ft 347 kts 128°
2026-05-07 17:32 52.54546 20.35996 15155 ft 346 kts 128°
2026-05-07 17:33 52.53235 20.39231 14736 ft 344 kts 128°
2026-05-07 17:33 52.51909 20.42501 14322 ft 343 kts 128°
2026-05-07 17:33 52.50591 20.45748 13915 ft 341 kts 128°
2026-05-07 17:33 52.49277 20.48978 13478 ft 340 kts 128°
2026-05-07 17:34 52.47966 20.52196 13028 ft 338 kts 128°
2026-05-07 17:34 52.46660 20.55398 12582 ft 337 kts 128°
2026-05-07 17:34 52.45359 20.58584 12142 ft 336 kts 127°
2026-05-07 17:34 52.44062 20.61756 11713 ft 334 kts 127°
2026-05-07 17:35 52.42770 20.64913 11289 ft 333 kts 127°
2026-05-07 17:35 52.41482 20.68056 10868 ft 332 kts 127°
2026-05-07 17:35 52.40199 20.71183 10445 ft 330 kts 127°
2026-05-07 17:35 52.38937 20.74256 10040 ft 329 kts 126°
2026-05-07 17:36 52.37670 20.77338 9866 ft 320 kts 126°
2026-05-07 17:36 52.36446 20.80316 9716 ft 311 kts 126°
2026-05-07 17:36 52.35257 20.83203 9562 ft 301 kts 127°
2026-05-07 17:36 52.34102 20.86005 9385 ft 294 kts 127°
2026-05-07 17:37 52.32965 20.88754 9102 ft 290 kts 127°
2026-05-07 17:37 52.31841 20.91472 8837 ft 287 kts 127°
2026-05-07 17:37 52.30730 20.94158 8580 ft 284 kts 127°
2026-05-07 17:37 52.29630 20.96811 8321 ft 281 kts 127°
2026-05-07 17:38 52.28540 20.99436 8065 ft 278 kts 126°
2026-05-07 17:38 52.27447 21.02016 7809 ft 274 kts 131°
2026-05-07 17:38 52.26015 21.03899 7550 ft 266 kts 154°
2026-05-07 17:38 52.24387 21.05292 7315 ft 263 kts 155°
2026-05-07 17:39 52.22769 21.06663 7065 ft 261 kts 155°
2026-05-07 17:39 52.21162 21.08031 6819 ft 260 kts 155°
2026-05-07 17:39 52.19569 21.09396 6579 ft 258 kts 155°
2026-05-07 17:39 52.18010 21.10737 6500 ft 249 kts 155°
2026-05-07 17:40 52.16492 21.12043 6330 ft 247 kts 155°
2026-05-07 17:40 52.14974 21.13349 6065 ft 246 kts 154°
2026-05-07 17:40 52.13467 21.14663 5809 ft 245 kts 154°
2026-05-07 17:40 52.11986 21.15962 5557 ft 245 kts 154°
2026-05-07 17:41 52.10492 21.17272 5307 ft 244 kts 154°
2026-05-07 17:41 52.09001 21.18578 5054 ft 243 kts 154°
2026-05-07 17:41 52.07514 21.19879 4807 ft 242 kts 154°
2026-05-07 17:41 52.06031 21.21173 4551 ft 242 kts 154°
2026-05-07 17:42 52.04552 21.22463 4298 ft 241 kts 153°
2026-05-07 17:42 52.03059 21.23668 4027 ft 239 kts 165°
2026-05-07 17:42 52.01441 21.23761 3767 ft 233 kts 198°
2026-05-07 17:42 52.00068 21.22492 3518 ft 227 kts 226°
2026-05-07 17:43 51.99154 21.20482 3290 ft 224 kts 241°
2026-05-07 17:43 51.98412 21.18274 3064 ft 221 kts 244°
2026-05-07 17:43 51.97931 21.16000 2981 ft 207 kts 273°
2026-05-07 17:43 51.98439 21.13972 2996 ft 194 kts 315°
2026-05-07 17:44 51.99441 21.12543 3022 ft 191 kts 319°
2026-05-07 17:44 52.00490 21.11246 3004 ft 187 kts 323°
2026-05-07 17:44 52.01544 21.10042 3014 ft 185 kts 325°
2026-05-07 17:44 52.02637 21.08965 3003 ft 182 kts 329°
2026-05-07 17:45 52.03741 21.07971 2954 ft 182 kts 330°
2026-05-07 17:45 52.04845 21.06999 2765 ft 185 kts 331°
2026-05-07 17:45 52.05980 21.06002 2525 ft 186 kts 332°
2026-05-07 17:45 52.07106 21.05016 2250 ft 179 kts 333°
2026-05-07 17:46 52.08160 21.04091 2018 ft 164 kts 333°
2026-05-07 17:46 52.09115 21.03252 1827 ft 147 kts 333°
2026-05-07 17:46 52.09990 21.02483 1657 ft 139 kts 333°
2026-05-07 17:46 52.10855 21.01726 1442 ft 142 kts 333°
2026-05-07 17:47 52.11730 21.00959 1236 ft 143 kts 333°
2026-05-07 17:47 52.12598 21.00198 1035 ft 141 kts 332°
2026-05-07 17:47 52.13455 20.99446 846 ft 142 kts 331°
2026-05-07 17:47 52.14319 20.98692 653 ft 139 kts 331°
2026-05-07 17:48 52.15156 20.97956 457 ft 136 kts 330°
2026-05-07 17:48 52.15968 20.97248 355 ft 122 kts 332°
2026-05-07 17:48 52.16629 20.96671 336 ft 89 kts 331°
2026-05-07 17:48 52.17023 20.96318 333 ft 40 kts 331°
2026-05-07 17:49 52.17282 20.96251 336 ft 36 kts
2026-05-07 17:49 52.17392 20.96294 334 ft 0 kts 43°
2026-05-07 17:49 52.17399 20.96309 332 ft 3 kts 55°
2026-05-07 17:50 52.17420 20.96367 333 ft 9 kts 61°
2026-05-07 17:50 52.17457 20.96482 334 ft 14 kts 62°
2026-05-07 17:50 52.17419 20.96615 333 ft 17 kts 152°
2026-05-07 17:50 52.17302 20.96714 334 ft 21 kts 150°
2026-05-07 17:51 52.17202 20.96802 335 ft 15 kts 151°
2026-05-07 17:51 52.17114 20.96881 335 ft 14 kts 151°
2026-05-07 17:51 52.17029 20.96956 334 ft 14 kts 152°
2026-05-07 17:51 52.16981 20.97063 335 ft 13 kts 73°
2026-05-07 17:52 52.16995 20.97131 334 ft 0 kts 70°
2026-05-07 17:52 52.16996 20.97133 334 ft 1 kts 70°
2026-05-07 17:52 52.16999 20.97147 332 ft 0 kts 70°